Voltar ao catálogo

STARLINK-34572

AtivoComunicaçõesVLEO
NORAD 64720·PAYLOAD·🇺🇸 United States

Lançado Jun 28, 2025 de Vandenberg Space Force Base

Loading…

Próximas Passagens (próximas 24 horas)

TLE

AtualizadoSource: CelesTrak SupGP

Época: Sep 15, 2026, 04:07 UTC

1 64720C 25142AA  26258.17201389 -.00041710  00000+0 -14512-2 0  2584
2 64720  70.0011 194.9724 0003113 272.5267 202.4287 15.29595635    11

Acompanhe STARLINK-34572 em tempo real com AllMySat

Download on the App Store